Location: Observatoire de Paris
(48.8363°N, 2.3365°E)
Time: 03:57:01
(UTC+01:00)

Vanguard 3 - Pass Details

Date: 04 August 2021
Orbit: 510 x 3260 km, 33.3° (Epoch: 18 September)

Event Time Altitude Azimuth Distance (km) Brightness Sun altitude
Rises 21:52:31 0° 267° (W) 6,310 12.4 -12.5°
Reaches altitude 10° 21:56:40 10° 261° (W) 5,586 11.9 -13.0°
Maximum altitude 22:12:37 40° 201° (SSW) 4,178 10.5 -14.8°
Enters shadow 22:25:43 19° 147° (SSE) 5,293 10.6 -16.1°
